Total_Precipitation_Accumulation
0.00 0.00 0.01 0.05 0.08 0.14 0.05 0.04 0.03 0.01 0.00 0.05 0.17 0.05 0.09 0.06 0.06 0.21 0.44 0.18 0.09 0.10
0.00 0.00 0.00 0.01 0.09 0.11 0.10 0.14 0.10 0.06 0.03 0.00 0.03 0.08 0.17 0.06 0.14 0.28 0.46 0.18 0.09 0.04
0.00 0.00 0.00 0.00 0.02 0.05 0.13 0.23 0.14 0.06 0.12 0.08 0.02 0.05 0.19 0.23 0.24 0.40 0.28 0.06 0.05 0.04
0.02 0.01 0.04 0.03 0.01 0.01 0.06 0.18 0.18 0.11 0.16 0.16 0.09 0.07 0.19 0.25 0.31 0.37 0.17 0.04 0.02 0.01
0.05 0.07 0.08 0.09 0.05 0.03 0.04 0.14 0.21 0.19 0.18 0.19 0.18 0.09 0.16 0.24 0.23 0.20 0.10 0.06 0.06 0.13
0.03 0.03 0.05 0.07 0.07 0.06 0.04 0.14 0.25 0.22 0.40 0.42 0.31 0.25 0.20 0.13 0.08 0.09 0.05 0.05 0.10 0.19
0.00 0.01 0.02 0.10 0.16 0.24 0.21 0.17 0.53 0.83 1.11 0.85 0.81 0.65 0.34 0.18 0.14 0.14 0.05 0.08 0.11 0.18
0.00 0.01 0.04 0.07 0.13 0.42 0.49 1.14 2.53 3.32 2.25 1.05 0.54 0.42 0.33 0.19 0.18 0.24 0.09 0.04 0.06 0.13
0.00 0.01 0.01 0.17 0.29 0.32 1.10 2.93 2.92 2.18 1.47 0.59 0.39 0.63 0.99 0.69 0.55 0.35 0.17 0.10 0.23 0.21
0.00 0.03 0.23 0.41 0.31 0.25 1.73 2.80 1.95 1.88 1.60 0.85 0.73 0.73 0.86 0.67 0.33 0.19 0.08 0.13 0.26 0.22
0.00 0.07 0.29 0.27 0.31 0.43 1.47 1.73 1.82 2.34 2.05 0.86 0.57 0.83 0.78 0.49 0.18 0.25 0.22 0.13 0.18 0.26
0.00 0.06 0.15 0.20 0.31 0.64 1.16 1.35 1.93 1.73 0.98 0.38 0.40 0.52 0.43 0.33 0.07 0.06 0.27 0.25 0.28 0.31
0.00 0.01 0.02 0.12 0.46 0.78 0.94 1.28 0.96 0.60 0.35 0.29 0.18 0.22 0.16 0.08 0.01 0.02 0.10 0.21 0.19 0.31
0.00 0.01 0.04 0.26 0.41 0.45 0.38 0.49 0.40 0.27 0.19 0.15 0.10 0.01 0.01 0.03 0.02 0.05 0.13 0.21 0.23 0.21